Torna al catalogo

STARLINK-30393

AttivoComunicazioniVLEO
NORAD 57866·PAYLOAD·🇺🇸 United States

Lanciato Sep 16, 2023 da Cape Canaveral Space Force Station

Loading…

Prossimi Passaggi (prossime 24 ore)

TLE

AggiornatoSource: CelesTrak SupGP

Epoca: Sep 14, 2026, 22:14 UTC

1 57866C 23144C   26257.92687500  .00010494  00000+0  38016-3 0  2570
2 57866  43.0002 296.2421 0001446 268.9197  21.5232 15.27567644    19

Traccia STARLINK-30393 in tempo reale con AllMySat

Download on the App Store